FW0788 Weather Reports


Display with metric or nautical units.
time (UTC)temp
F
wind
direction
speed
MPH
gust
MPH
rain 1hr
in
rain 24hr
in
rain mn
in
humidity
%
barometer
mb
20260905054510 56 141 2.0 11.0 0.05 0.85 0.82 86 995.3
20260905053009 56 128 4.0 11.0 0.05 0.85 0.82 88 995.3
20260905051517 55 224 3.0 13.0 0.05 0.85 0.82 89 995.2
20260905050008 57 167 2.0 15.0 0.01 0.81 0.78 85 995.2
20260905044507 58 225 1.0 15.0 0.00 0.80 0.77 83 995.2
20260905043005 58 200 1.0 21.0 0.00 0.80 0.77 83 995.4
20260905041504 57 217 0.0 12.0 0.00 0.80 0.77 85 995.3
20260905040002 57 129 1.0 20.0 0.00 0.80 0.77 84 995.2
20260905034615 58 197 2.0 13.0 0.00 0.80 0.77 87 995.2
20260905033109 58 232 1.0 15.0 0.00 0.80 0.77 91 995.3
20260905031557 58 13 2.0 18.0 0.00 0.80 0.77 92 995.4
20260905030051 57 180 0.0 10.0 0.00 0.80 0.77 93 995.7
20260905024548 57 134 0.0 0.0 0.00 0.80 0.77 93 995.8
20260905023049 57 173 0.0 0.0 0.01 0.80 0.77 93 996.0
20260905021545 57 202 0.0 0.0 0.01 0.80 0.77 93 996.2
20260905020042 57 213 0.0 0.0 0.01 0.80 0.77 94 996.4
20260905014540 56 293 0.0 0.0 0.00 0.80 0.76 94 996.6
20260905013045 56 176 0.0 0.0 0.00 0.80 0.76 94 997.0
20260905011535 56 180 0.0 0.0 0.01 0.80 0.76 94 997.3
20260905010035 56 47 0.0 0.0 0.02 0.80 0.76 94 997.6
20260905004531 56 240 0.0 0.0 0.03 0.80 0.76 94 997.9
20260905003029 56 246 0.0 0.0 0.06 0.80 0.76 94 998.2
20260905001526 56 144 0.0 0.0 0.08 0.79 0.76 94 998.3
20260905000024 56 226 0.0 0.0 0.11 0.78 0.75 95 998.5
20260904234521 56 247 0.0 0.0 0.11 0.76 0.73 95 999.0
20260904233021 56 161 0.0 0.0 0.09 0.74 0.71 95 999.3
20260904231517 55 170 0.0 0.0 0.07 0.71 0.68 94 999.6
20260904230016 55 254 0.0 0.0 0.03 0.66 0.63 94 999.7
20260904224515 55 279 0.0 0.0 0.06 0.65 0.62 94 1000.1
20260904223012 55 279 0.0 0.0 0.07 0.65 0.61 94 1000.4
20260904221511 55 279 0.0 0.0 0.08 0.64 0.61 94 1000.5
20260904220008 55 329 0.0 0.0 0.09 0.63 0.60 94 1000.8
20260904214507 55 331 0.0 0.0 0.09 0.59 0.56 94 1001.0
20260904213008 54 236 0.0 0.0 0.12 0.56 0.54 94 1001.3
20260904211506 54 334 0.0 0.0 0.13 0.56 0.53 94 1001.0
20260904210010 54 204 0.0 0.0 0.15 0.54 0.51 94 1001.3
20260904204503 54 202 0.0 0.0 0.13 0.49 0.46 94 1001.8
20260904203102 54 219 0.0 0.0 0.14 0.46 0.43 94 1002.2
20260904201559 54 249 0.0 0.0 0.16 0.43 0.40 94 1002.3
20260904200107 55 248 0.0 0.0 0.16 0.39 0.36 94 1002.6
20260904194608 55 244 0.0 0.0 0.16 0.36 0.33 94 1002.8
20260904193052 55 211 0.0 0.0 0.16 0.31 0.28 94 1003.0
20260904191551 54 204 0.0 0.0 0.14 0.27 0.24 94 1003.1
20260904190049 54 257 0.0 0.0 0.13 0.24 0.20 94 1003.3
20260904184547 54 257 0.0 0.0 0.11 0.20 0.17 94 1003.6
20260904183043 54 257 0.0 0.0 0.07 0.16 0.13 93 1003.7
20260904181551 54 257 0.0 0.0 0.06 0.13 0.09 93 1003.7
20260904180050 54 151 0.0 0.0 0.04 0.10 0.07 93 1003.9
20260904174543 54 243 0.0 0.0 0.04 0.09 0.06 93 1004.1
20260904173041 54 187 0.0 0.0 0.04 0.09 0.06 93 1004.4
20260904171605 54 148 0.0 0.0 0.03 0.07 0.04 93 1004.6
20260904170031 54 161 0.0 0.0 0.03 0.06 0.03 93 1005.0
20260904164527 54 238 0.0 0.0 0.02 0.06 0.02 93 1005.4
20260904163025 53 240 0.0 0.0 0.02 0.05 0.02 93 1005.8
20260904161522 53 237 0.0 0.0 0.01 0.04 0.01 93 1005.9
20260904160021 52 237 0.0 0.0 0.00 0.03 0.00 93 1006.2
20260904154532 52 237 0.0 0.0 0.00 0.03 0.00 92 1006.5
20260904153015 52 237 0.0 0.0 0.00 0.03 0.00 92 1006.7
20260904151513 52 237 0.0 0.0 0.00 0.03 0.00 92 1007.0
20260904150013 52 237 0.0 0.0 0.00 0.03 0.00 92 1007.1
20260904144511 53 237 0.0 0.0 0.00 0.03 0.00 91 1007.1
20260904143015 53 237 0.0 0.0 0.00 0.03 0.00 91 1007.4
20260904141507 53 236 0.0 0.0 0.01 0.03 0.00 91 1007.7
20260904140012 53 156 0.0 0.0 0.02 0.03 0.00 90 1007.8
20260904134501 53 154 0.0 1.0 0.02 0.03 0.03 90 1008.0
20260904133115 53 165 0.0 0.0 0.02 0.03 0.03 89 1008.2
20260904131602 53 150 0.0 0.0 0.02 0.02 0.02 88 1008.4
20260904130057 54 169 0.0 0.0 0.00 0.01 0.01 85 1008.5
20260904124602 54 190 0.0 0.0 0.00 0.01 0.01 83 1008.6
20260904123057 54 136 0.0 6.0 0.00 0.01 0.01 82 1008.7
20260904121553 54 195 0.0 5.0 0.00 0.01 0.01 81 1008.9
20260904120058 53 175 0.0 4.0 0.00 0.01 0.01 82 1009.2
20260904114558 53 92 0.0 8.0 0.00 0.01 0.01 82 1009.4
20260904113049 53 186 0.0 0.0 0.00 0.01 0.01 80 1009.8
20260904111548 53 182 1.0 7.0 0.00 0.01 0.01 78 1009.6
20260904110048 54 111 0.0 11.0 0.00 0.01 0.01 76 1009.6
20260904104607 54 153 3.0 10.0 0.00 0.01 0.01 76 1009.6
20260904103046 54 65 0.0 12.0 0.00 0.01 0.01 74 1009.7
20260904101545 54 47 0.0 8.0 0.00 0.01 0.01 79 1009.6
20260904100059 54 202 0.0 7.0 0.00 0.01 0.01 81 1009.7
20260904094554 53 234 0.0 5.0 0.00 0.01 0.01 84 1009.9
20260904093043 53 233 0.0 8.0 0.00 0.01 0.01 85 1009.9
20260904091542 52 179 0.0 0.0 0.00 0.01 0.01 86 1010.1
20260904090042 51 186 0.0 0.0 0.00 0.01 0.01 87 1010.2
20260904084541 51 185 0.0 0.0 0.00 0.01 0.01 87 1010.3
20260904083044 51 178 0.0 0.0 0.00 0.01 0.01 86 1010.3
20260904081540 51 148 0.0 0.0 0.00 0.01 0.01 86 1010.0
20260904080041 51 184 0.0 0.0 0.01 0.01 0.01 87 1010.3
20260904074539 51 338 0.0 1.0 0.01 0.01 0.01 87 1010.5
20260904073038 51 151 2.0 9.0 0.01 0.01 0.01 86 1010.3
20260904071537 52 66 0.0 5.0 0.01 0.01 0.01 84 1010.2
20260904070042 54 184 0.0 13.0 0.00 0.00 0.00 80 1010.0
20260904064534 54 160 0.0 7.0 0.00 0.00 0.00 78 1009.8
20260904063040 55 174 1.0 14.0 0.00 0.00 0.00 78 1009.8
20260904061532 55 149 1.0 11.0 0.00 0.00 0.00 75 1009.8
20260904060100 55 124 0.0 7.0 0.00 0.00 0.00 74 1009.9